This demonstration page uses our WeatherBlox Daily Observations layout. Learn more.

Left ArrowRight Arrow

Hourly Observations for April 3, 2015

Temp ( °F °C ) Dew Point ( °F °C ) Humidity (%) Winds ( mph kmh ) Pressure ( in mb ) Visibility ( mi km ) Precip ( " mm )
12:07 am 00:07 Cloudy with Light Thunderstorms 61 16.1 60 15.6 97 97 VRB 5 7 29.88 1012 8 12.87472 0.01 0.254
12:28 am 00:28 Cloudy with Light Rain 61 16.1 60 15.6 97 97 VRB 3 6 29.88 1012 6 9.65604 0.02 0.508
12:37 am 00:37 Cloudy with Light Thunderstorms 61 16.1 59 15 93 93 Calm 29.88 1012 7 11.26538 0.04 1.016
12:53 am 00:53 Cloudy with Light Rain 60 15.6 58 14.4 93 93 NE 3 6 29.86 1011 10 16.0934 0.04 1.016
1:28 am 01:28 Cloudy with Light Rain 59 15 58 14.4 96 96 ESE 3 6 29.85 1011 9 14.48406 0 0.0254
1:46 am 01:46 Cloudy with Light Rain 59 15 59 15 100 100 E 3 6 29.85 1011 7 11.26538 0.01 0.254
1:53 am 01:53 Cloudy with Mist and Fog 59 15 59 15 100 100 Calm 29.85 1011 6 9.65604 0.01 0.254
2:24 am 02:24 Cloudy with Mist and Fog 59 15 59 15 100 100 Calm 29.85 1011 2.5 4.02335 0 0
2:38 am 02:38 Cloudy with Light Rain 59 15 59 15 100 100 Calm 29.83 1010 1.5 2.41401 0 0.0254
2:51 am 02:51 Cloudy with Light Rain 59 15 59 15 100 100 E 3 6 29.83 1010 0.75 1.207005 0 0.0254
2:53 am 02:53 Cloudy with Light Rain 59 15 59 15 100 100 Calm 29.83 1010 0.75 1.207005 0 0.0254
3:01 am 03:01 Cloudy with Mist and Fog 59 15 59 15 100 100 Calm 29.85 1011 1.25 2.011675 0 0.0254
3:26 am 03:26 Cloudy with Light Rain 59 15 59 15 100 100 Calm 29.85 1011 2 3.21868 0 0.0254
3:39 am 03:39 Cloudy with Mist and Fog 59 15 59 15 100 100 Calm 29.85 1011 1.5 2.41401 0 0.0254
3:53 am 03:53 Cloudy with Mist and Fog 59 15 59 15 100 100 Calm 29.84 1011 1.75 2.816345 0 0.0254
4:00 am 04:00 Cloudy with Mist and Fog 59 15 58 14.4 96 96 Calm 29.83 1010 0.75 1.207005 0 0
4:31 am 04:31 Cloudy with Mist and Fog 59 15 59 15 100 100 Calm 29.83 1010 0.75 1.207005 0 0
4:40 am 04:40 Cloudy with Light Rain 59 15 59 15 100 100 Calm 29.83 1010 1 1.60934 0 0.0254
4:53 am 04:53 Cloudy with Light Rain 59 15 59 15 100 100 Calm 29.84 1011 0.75 1.207005 0.01 0.254
5:13 am 05:13 Mostly Cloudy with Nearby Thunderstorms 58 14.4 58 14.4 100 100 N 7 11 29.85 1011 1 1.60934 0.02 0.508
5:18 am 05:18 Cloudy with Nearby Thunderstorms 58 14.4 58 14.4 100 100 N 6 9 29.85 1011 2 3.21868 0.05 1.27
5:34 am 05:34 Cloudy with Rain 57 13.9 57 13.9 100 100 N 7 11 29.88 1012 2 3.21868 0.13 3.302
5:48 am 05:48 Cloudy with Nearby Thunderstorms 57 14 55 13 94 94 E 5 7 29.83 1010 2 3.21868 0.18 4.572
5:53 am 05:53 Cloudy with Nearby Thunderstorms 57 13.9 56 13.3 96 96 Calm 29.84 1011 2.5 4.02335 0.18 4.572
6:01 am 06:01 Cloudy with Nearby Thunderstorms 57 13.9 56 13.3 96 96 Calm 29.85 1011 3 4.82802 0 0.0254
6:05 am 06:05 Cloudy with Mist and Fog 57 13.9 56 13.3 96 96 N 6 9 29.85 1011 4 6.43736 0 0.0254
6:16 am 06:16 Cloudy with Light Rain 57 13.9 56 13.3 96 96 S 3 6 29.85 1011 2.5 4.02335 0 0.0254
6:30 am 06:30 Cloudy with Light Rain 57 13.9 56 13.3 96 96 Calm 29.85 1011 3 4.82802 0.01 0.254
6:40 am 06:40 Cloudy with Light Rain 57 13.9 56 13.3 96 96 Calm 29.85 1011 2 3.21868 0.02 0.508
6:53 am 06:53 Cloudy with Light Rain 57 13.9 56 13.3 96 96 SSE 3 6 29.85 1011 2 3.21868 0.04 1.016
7:14 am 07:14 Cloudy with Light Rain 58 14.4 57 13.9 97 97 WNW 5 7 29.85 1011 5 8.0467 0.02 0.508
7:53 am 07:53 Cloudy with Light Rain 58 14.4 57 13.9 97 97 Calm 29.85 1011 2.5 4.02335 0.03 0.762
7:59 am 07:59 Cloudy with Light Rain 57 13.9 57 13.9 100 100 Calm 29.85 1011 1.5 2.41401 0 0.0254
8:06 am 08:06 Mostly Cloudy with Light Rain 57 13.9 57 13.9 100 100 Calm 29.83 1010 1.75 2.816345 0 0.0254
8:10 am 08:10 Cloudy with Light Rain 57 13.9 57 13.9 100 100 Calm 29.83 1010 3 4.82802 0 0.0254
8:31 am 08:31 Cloudy with Light Rain 57 13.9 57 13.9 100 100 Calm 29.83 1010 2.5 4.02335 0 0.0254
8:49 am 08:49 Cloudy with Light Rain 57 14 57 14 100 100 S 5 7 29.83 1010 7 11.26538 0 0.0254
8:53 am 08:53 Cloudy with Light Rain 58 14.4 57 13.9 97 97 S 8 13 29.81 1009 10 16.0934 0 0.0254
9:53 am 09:53 Partly Cloudy 61 16.1 57 13.9 87 87 NW 5 7 29.84 1011 10 16.0934 0.01 0.254
10:23 am 10:23 Mostly Cloudy 62 16.7 57 13.9 84 84 SSW 5 7 29.85 1011 10 16.0934 0 0
10:53 am 10:53 Mostly Cloudy 62 16.7 57 13.9 84 84 SW 8 13 29.87 1011 10 16.0934 0 0
11:53 am 11:53 Cloudy with Light Rain 61 16.1 55 12.8 81 81 SSW 9 15 29.88 1012 10 16.0934 0 0.0254
12:23 pm 12:23 Cloudy with Rain 59 15 56 13.3 90 90 SW 6 9 29.88 1012 2.5 4.02335 0.04 1.016
12:31 pm 12:31 Cloudy with Heavy Rain 58 14.4 57 13.9 97 97 SSW 6 9 29.88 1012 0.75 1.207005 0.11 2.794
12:46 pm 12:46 Cloudy with Rain 58 14.4 57 13.9 97 97 SW 5 7 29.88 1012 1.5 2.41401 0.19 4.826
12:53 pm 12:53 Cloudy with Rain 58 14.4 57 13.9 97 97 Calm 29.88 1012 1.75 2.816345 0.21 5.334
1:00 pm 13:00 Cloudy with Heavy Rain 58 14.4 58 14.4 100 100 SSE 3 6 29.88 1012 1 1.60934 0.05 1.27
1:06 pm 13:06 Cloudy with Light Rain 59 15 58 14.4 96 96 SSE 3 6 29.85 1011 2 3.21868 0.06 1.524
1:14 pm 13:14 Cloudy with Light Rain 59 15 58 14.4 96 96 SSE 7 11 29.83 1010 4 6.43736 0.07 1.778
1:27 pm 13:27 Cloudy with Light Rain 60 15.6 58 14.4 93 93 SSE 9 15 29.8 1009 8 12.87472 0.07 1.778
1:53 pm 13:53 Cloudy 62 16.7 59 15 90 90 S 12 19 29.77 1008 10 16.0934 0.07 1.778
2:23 pm 14:23 Cloudy 63 17.2 58 14.4 84 84 VRB 6 9 29.8 1009 10 16.0934 0 0
2:53 pm 14:53 Cloudy 64 17.8 58 14.4 81 81 VRB 6 9 29.77 1008 10 16.0934 0 0
3:53 pm 15:53 Cloudy 64 17.8 58 14.4 81 81 W 6 9 29.76 1008 10 16.0934 0 0.0254
4:07 pm 16:07 Cloudy 64 17.8 58 14.4 81 81 W 5 7 29.77 1008 10 16.0934 0 0
4:25 pm 16:25 Cloudy with Heavy Rain 59 15 55 12.8 87 87 NNW 14 22 29.77 1008 1.5 2.41401 0.1 2.54
4:31 pm 16:31 Cloudy with Heavy Rain 57 13.9 55 12.8 93 93 N 20 31 29.77 1008 1 1.60934 0.15 3.81
4:40 pm 16:40 Cloudy with Heavy Rain 54 12.2 51 10.6 90 90 NNW 21 33 29.77 1008 1.75 2.816345 0.19 4.826
4:47 pm 16:47 Cloudy with Light Rain 54 12 50 10 88 88 NNW 17 28 29.8 1009 2.5 4.02335 0.2 5.08
4:53 pm 16:53 Cloudy with Rain 52 11.1 50 10 93 93 NNW 17 28 29.79 1009 2.5 4.02335 0.21 5.334
5:02 pm 17:02 Cloudy with Light Rain 52 11.1 49 9.4 89 89 NNW 9 15 29.83 1010 5 8.0467 0.01 0.254
5:38 pm 17:38 Cloudy with Light Rain 51 10.6 51 10.6 100 100 NNW 7 11 29.83 1010 7 11.26538 0.01 0.254
5:53 pm 17:53 Cloudy with Light Rain 51 10.6 51 10.6 100 100 NW 9 15 29.83 1010 5 8.0467 0.01 0.254
6:03 pm 18:03 Cloudy with Light Rain 51 10.6 50 10 96 96 NW 10 17 29.88 1012 5 8.0467 0 0.0254
6:34 pm 18:34 Cloudy with Light Rain 50 10 48 8.9 93 93 N 12 19 29.88 1012 7 11.26538 0.01 0.254
6:53 pm 18:53 Cloudy with Light Rain 49 9.4 49 9.4 100 100 NNW 10 17 29.88 1012 7 11.26538 0.01 0.254
7:21 pm 19:21 Cloudy with Light Rain 48 8.9 47 8.3 96 96 NNW 10 17 29.94 1014 7 11.26538 0.01 0.254
7:50 pm 19:50 Cloudy with Light Rain 46 8 46 8 100 100 NNW 16 26 29.94 1014 10 16.0934 0.01 0.254
7:53 pm 19:53 Cloudy with Light Rain 47 8.3 46 7.8 97 97 NNW 13 20 29.92 1013 10 16.0934 0.01 0.254
8:53 pm 20:53 Cloudy 47 8.3 47 8.3 100 100 WNW 6 9 29.95 1014 10 16.0934 0 0.0254
9:53 pm 21:53 Cloudy 47 8.3 43 6.1 86 86 WNW 6 9 29.98 1015 10 16.0934 0 0
10:53 pm 22:53 Mostly Cloudy 47 8.3 43 6.1 86 86 W 6 9 30.01 1016 10 16.0934 0 0
11:53 pm 23:53 Cloudy 47 8.3 42 5.6 83 83 WNW 9 15 30.05 1018 10 16.0934 0 0

Powered by AerisWeather